This is the latest recevied weather packets stored in our database for station/object K7TUS-6. If no packets are shown the sender has not sent any weather packets the latest 10 day(s).
| Time | Temp. | Humidity | Pressure | Rain* | Wind** | Luminosity | Snow |
|---|---|---|---|---|---|---|---|
| 1778266805 | 17.22° C | 1% | 987.5 hPa | - | - | - | - |
| 1778266504 | 17.22° C | 1% | 988.2 hPa | - | - | - | - |
| 1778266203 | 18.33° C | 1% | 987.9 hPa | - | - | - | - |
| 1778265903 | 19.44° C | 1% | 987.9 hPa | - | - | - | - |
| 1778265608 | 19.44° C | 1% | 988.1 hPa | - | - | - | - |
| 1778265307 | 18.89° C | 1% | 988.2 hPa | - | - | - | - |
| 1778265007 | 17.78° C | 1% | 987.4 hPa | - | - | - | - |
| 1778264707 | 17.78° C | 1% | 989.1 hPa | - | - | - | - |
| 1778264406 | 18.33° C | 1% | 987.9 hPa | - | - | - | - |
| 1778264106 | 17.22° C | 1% | 987.5 hPa | - | - | - | - |
| 1778263805 | 16.67° C | 2% | 987.9 hPa | - | - | - | - |
| 1778263505 | 17.22° C | 100% | 988.5 hPa | - | - | - | - |
| 1778263204 | 16.67° C | 100% | 987.9 hPa | - | - | - | - |
| 1778262903 | 16.11° C | 1% | 988.1 hPa | - | - | - | - |
| 1778262603 | 15.56° C | 1% | 987.8 hPa | - | - | - | - |
| 1778262308 | 16.67° C | 1% | 988.1 hPa | - | - | - | - |
| 1778262008 | 16.67° C | 4% | 987.6 hPa | - | - | - | - |
| 1778261707 | 15.56° C | 2% | 988.2 hPa | - | - | - | - |
| 1778261407 | 15° C | 2% | 987.6 hPa | - | - | - | - |
| 1778261106 | 13.33° C | 2% | 987.4 hPa | - | - | - | - |
| 1778260806 | 15° C | 2% | 987.8 hPa | - | - | - | - |
| 1778260505 | 16.11° C | 3% | 988.2 hPa | - | - | - | - |
| 1778260205 | 15.56° C | 4% | 987.4 hPa | - | - | - | - |
| 1778259904 | 13.89° C | 3% | 986.7 hPa | - | - | - | - |
| 1778259603 | 14.44° C | 1% | 987 hPa | - | - | - | - |
* Rain since midnight (hover to see other rain measurements)
** Current wind speed in m/s (hover to see current wind gust speed)